[[{"header":{"parameterUnit":"m.s-1","parameterCategory":1,"la1":30.2991,"la2":30.254,"lo1":-89.0895,"lo2":-89.0444,"dy":0.0017,"dx":0.0017,"nx":28,"ny":28,"refTime":"2024-12-26T03:00:00:Z","depth":0,"parameterNumber":2,"parameterNumberName":"U-component_of_WINDS"},"data":[0,0,0,0,0,0,0,0,0,0,0,0,0,0,0,0,0,0,0,0,0,0,0,0,0,0,0,0,0,0,0,0,0,0,0,0,0,0,0,0,0,0,0,0,0,0,0,0,0,0,0,0,0,0,0,0,0,0,-1.0584,-1.0584,0,-1.0568,-1.0567,-1.0567,-1.0572,-1.0572,-1.0573,-1.0573,-1.0556,-1.0555,-1.0554,0,0,0,0,0,0,0,0,0,0,0,0,0,-1.0619,-1.0618,-1.0584,-1.0584,-1.0584,-1.0568,-1.0567,-1.0567,-1.0572,-1.0572,-1.0573,-1.0573,-1.0556,-1.0555,-1.0554,0,0,0,0,0,0,0,0,0,0,0,0,0,-1.0603,-1.0618,-1.0584,-1.0584,-1.0584,-1.0568,-1.0567,-1.0567,-1.0572,-1.0572,-1.0573,-1.0573,-1.0556,-1.0555,-1.0554,-1.0537,0,0,-1.055,-1.055,0,0,0,0,0,0,0,0,-1.0604,-1.0602,-1.0584,-1.0584,-1.0584,-1.0572,-1.0573,-1.0557,-1.0572,-1.0576,-1.0573,-1.0573,-1.0561,-1.0559,-1.0555,-1.0536,-1.0535,-1.055,-1.055,-1.0549,-1.0549,0,0,0,0,0,0,0,-1.0605,-1.0603,-1.0578,-1.0584,-1.0584,-1.0585,-1.0583,-1.057,-1.0566,-1.0576,-1.0576,-1.0574,-1.0561,-1.0556,-1.0555,-1.0535,-1.055,-1.0549,-1.0548,-1.0548,-1.05,-1.05,0,0,0,0,0,0,-1.0606,-1.0603,-1.0578,-1.0577,-1.0595,-1.0584,-1.0582,-1.0575,-1.0566,-1.0565,-1.0574,-1.0574,-1.0558,-1.0556,-1.0554,-1.0533,-1.0549,-1.0548,-1.0547,-1.0501,-1.05,-1.0499,0,0,0,0,0,0,-1.0607,-1.0604,-1.0579,-1.059,-1.0587,-1.0582,-1.0575,-1.0575,-1.057,-1.0564,-1.0564,-1.057,-1.0558,-1.0556,-1.0541,-1.0532,-1.0547,-1.0546,-1.0501,-1.0501,-1.05,-1.049,0,0,0,0,0,0,-1.0608,-1.0604,-1.0598,-1.059,-1.0587,-1.0566,-1.0575,-1.0574,-1.0568,-1.0569,-1.0561,-1.056,-1.0558,-1.0543,-1.054,-1.0531,-1.0545,-1.0502,-1.0501,-1.05,-1.0491,-1.0489,-1.0487,0,0,0,0,0,-1.0609,-1.0596,-1.0598,-1.0594,-1.0578,-1.0565,-1.0563,-1.0562,-1.0568,-1.0561,-1.0557,-1.056,-1.0534,-1.0541,-1.0538,-1.0528,-1.0503,-1.0501,-1.05,-1.0492,-1.0489,-1.0487,0,0,0,0,0,0,-1.0603,-1.0595,-1.0597,-1.058,-1.0574,-1.0566,-1.0558,-1.056,-1.0551,-1.0552,-1.0551,-1.0549,-1.0534,-1.053,-1.0538,-1.0511,-1.0519,-1.0517,-1.0514,-1.0511,-1.0509,-1.051,-1.0545,0,0,0,0,0,-1.0599,-1.059,-1.0583,-1.057,-1.0566,-1.0563,-1.0557,-1.0557,-1.0549,-1.0546,-1.0542,-1.0534,-1.0524,-1.0518,-1.0509,-1.0491,-1.0489,-1.0483,-1.0481,-1.0479,-1.0477,-1.0467,-1.0464,-1.0495,-1.0495,-1.0495,0,0,-1.0592,-1.0587,-1.0581,-1.0568,-1.0563,-1.0552,-1.056,-1.0549,-1.0541,-1.0545,-1.053,-1.0526,-1.0518,-1.0502,-1.0494,-1.0498,-1.0468,-1.0478,-1.0476,-1.0475,-1.0465,-1.0462,-1.046,-1.0494,-1.0494,-1.0495,0,0,-1.0574,-1.0569,-1.0557,-1.0551,-1.0543,-1.0541,-1.0538,-1.053,-1.0528,-1.0513,-1.0516,-1.0506,-1.049,-1.0483,-1.0478,-1.0457,-1.0459,-1.0454,-1.0443,-1.0433,-1.0431,-1.0429,-1.042,-1.0417,-1.0453,-1.0452,-1.0452,0,-1.0566,-1.0551,-1.055,-1.0538,-1.0532,-1.0536,-1.0523,-1.0517,-1.0507,-1.0502,-1.0507,-1.0485,-1.048,-1.0462,-1.0457,-1.0453,-1.0449,-1.0455,-1.0431,-1.0429,-1.0427,-1.0419,-1.0416,-1.0452,-1.0452,-1.0452,-1.0452,0,-1.0541,-1.053,-1.0521,-1.051,-1.0503,-1.0491,-1.0489,-1.0482,-1.0482,-1.0479,-1.0464,-1.0458,-1.0447,-1.0443,-1.0444,-1.0425,-1.0427,-1.0432,-1.0439,-1.0423,-1.0416,-1.0413,-1.0451,-1.0451,-1.0451,-1.0452,0,0,-1.0517,-1.0506,-1.0503,-1.0498,-1.0489,-1.048,-1.0468,-1.0458,-1.0451,-1.0444,-1.0433,-1.0419,-1.0423,-1.0417,-1.0417,-1.0408,-1.0391,-1.0413,-1.0413,-1.0408,-1.0369,-1.0365,-1.0361,-1.0392,-1.0392,-1.0391,-1.0369,0,-1.0497,-1.0476,-1.0475,-1.0455,-1.0445,-1.0448,-1.0437,-1.043,-1.0427,-1.0418,-1.0415,-1.0404,-1.0411,-1.0407,-1.0398,-1.0395,-1.0382,-1.0396,-1.0382,-1.0381,-1.0382,-1.0357,-1.0353,-1.0332,-1.0366,-1.0366,-1.0365,0,-1.0471,-1.0462,-1.0441,-1.0433,-1.0429,-1.0419,-1.0409,-1.0401,-1.0393,-1.0391,-1.0385,-1.0386,-1.0373,-1.0382,-1.0364,-1.0373,-1.0368,-1.0365,-1.0364,-1.0362,-1.0371,-1.0353,-1.0325,-1.0322,-1.0361,-1.0361,-1.0361,0,-1.0455,-1.0438,-1.0423,-1.0419,-1.0409,-1.0402,-1.0398,-1.0391,-1.0384,-1.0376,-1.0371,-1.0361,-1.0356,-1.0348,-1.0346,-1.0353,-1.0328,-1.0337,-1.0326,-1.0325,-1.0319,-1.0319,-1.0289,-1.0317,-1.0317,-1.0317,-1.0318,0,-1.0432,-1.0419,-1.0415,-1.0406,-1.0391,-1.039,-1.0376,-1.0372,-1.0366,-1.0355,-1.0358,-1.0348,-1.0347,-1.0337,-1.0336,-1.032,-1.0318,-1.0316,-1.0316,-1.0315,-1.0315,-1.031,-1.0311,-1.0317,-1.0317,-1.0317,-1.0317,0,-1.0411,-1.0408,-1.0392,-1.0384,-1.0382,-1.0371,-1.0364,-1.0355,-1.0353,-1.034,-1.0337,-1.0333,-1.0321,-1.0319,-1.0305,-1.0304,-1.0286,-1.0288,-1.0288,-1.0288,-1.0276,-1.0277,-1.0241,-1.0236,-1.0269,-1.0268,-1.0268,0,-1.0396,-1.0385,-1.0377,-1.037,-1.0365,-1.0354,-1.0347,-1.0346,-1.0339,-1.033,-1.0322,-1.031,-1.0301,-1.0282,-1.0278,-1.0267,-1.0268,-1.0256,-1.0266,-1.0266,-1.0267,-1.0267,-1.0265,-1.0254,-1.0253,-1.0253,-1.0253,0,-1.0369,-1.0368,-1.0358,-1.0347,-1.0339,-1.0331,-1.0323,-1.0317,-1.0315,-1.0307,-1.0295,-1.0288,-1.0274,-1.0262,-1.0252,-1.0247,-1.0249,-1.025,-1.0247,-1.0245,-1.0246,-1.0244,-1.0282,-1.025,-1.0251,-1.0251,-1.0251,-1.0251,-1.035,-1.034,-1.0332,-1.0321,-1.0315,-1.0307,-1.0298,-1.0294,-1.0284,-1.0272,-1.0273,-1.0259,-1.0252,-1.0238,-1.0233,-1.0222,-1.0226,-1.0221,-1.022,-1.0218,-1.0217,-1.0248,-1.022,-1.0221,-1.0221,-1.0221,-1.0221,0,-1.0322,-1.0317,-1.0307,-1.0295,-1.0286,-1.0289,-1.0281,-1.0273,-1.0261,-1.0254,-1.0244,-1.023,-1.0219,-1.0214,-1.0203,-1.0195,-1.0196,-1.0192,-1.0192,-1.0191,-1.0215,-1.0218,-1.0192,-1.0192,-1.0192,-1.0192,-1.0192,-1.0192,-1.0306,-1.029,-1.0289,-1.0269,-1.0265,-1.0251,-1.0246,-1.0239,-1.0233,-1.0217,-1.0207,-1.0204,-1.0198,-1.0186,-1.0176,-1.0175,-1.017,-1.0166,-1.0165,-1.0187,-1.0189,-1.0192,-1.0195,-1.0165,-1.0165,-1.0142,-1.0142,-1.0142]},{"header":{"parameterUnit":"m.s-1","parameterCategory":1,"la1":30.2991,"la2":30.254,"lo1":-89.0895,"lo2":-89.0444,"dy":0.0017,"dx":0.0017,"nx":28,"ny":28,"refTime":"2024-12-26T03:00:00:Z","depth":0,"parameterNumber":3,"parameterNumberName":"V-component_of_WINDS"},"data":[0,0,0,0,0,0,0,0,0,0,0,0,0,0,0,0,0,0,0,0,0,0,0,0,0,0,0,0,0,0,0,0,0,0,0,0,0,0,0,0,0,0,0,0,0,0,0,0,0,0,0,0,0,0,0,0,0,0,3.7909,3.791,0,3.8051,3.8053,3.8054,3.8088,3.8087,3.8086,3.8085,3.8229,3.8234,3.8238,0,0,0,0,0,0,0,0,0,0,0,0,0,3.7664,3.7668,3.7909,3.791,3.7912,3.8051,3.8053,3.8055,3.8088,3.8087,3.8086,3.8085,3.8228,3.8233,3.8239,0,0,0,0,0,0,0,0,0,0,0,0,0,3.7784,3.767,3.7908,3.7946,3.795,3.805,3.8053,3.8055,3.8088,3.8087,3.8085,3.8084,3.8226,3.8233,3.824,3.8312,0,0,3.8261,3.8264,0,0,0,0,0,0,0,0,3.7778,3.7793,3.7938,3.7943,3.7949,3.805,3.8019,3.8141,3.8089,3.8036,3.8085,3.8083,3.8171,3.8182,3.8212,3.8319,3.8325,3.8262,3.8266,3.8269,3.8271,0,0,0,0,0,0,0,3.7769,3.7787,3.7965,3.794,3.7947,3.7955,3.797,3.8043,3.811,3.804,3.8043,3.806,3.8173,3.8205,3.8216,3.8327,3.8262,3.8268,3.8272,3.8275,3.8502,3.8504,0,0,0,0,0,0,3.7755,3.778,3.796,3.7969,3.7858,3.796,3.7978,3.8019,3.8109,3.8121,3.8061,3.8061,3.8194,3.8207,3.8221,3.8313,3.8269,3.8276,3.828,3.85,3.8502,3.8504,0,0,0,0,0,0,3.7749,3.777,3.7955,3.7876,3.79,3.7966,3.8012,3.8023,3.8055,3.8124,3.8136,3.8081,3.8193,3.8211,3.829,3.8319,3.8279,3.8285,3.8498,3.8501,3.8503,3.8497,0,0,0,0,0,0,3.7742,3.7768,3.7797,3.7876,3.7904,3.8022,3.8014,3.8027,3.8067,3.8068,3.8147,3.8158,3.8193,3.8279,3.8297,3.8328,3.8291,3.8496,3.8499,3.8502,3.8495,3.85,3.8503,0,0,0,0,0,3.7733,3.7789,3.7798,3.782,3.7941,3.8023,3.8039,3.8079,3.8069,3.8099,3.8143,3.8156,3.8312,3.8287,3.8307,3.8341,3.8494,3.8498,3.8502,3.8494,3.8499,3.8503,0,0,0,0,0,0,3.7711,3.78,3.7811,3.7894,3.7951,3.8029,3.8067,3.8083,3.8143,3.8142,3.8188,3.8205,3.8281,3.8318,3.8289,3.8416,3.8403,3.8411,3.8389,3.8395,3.8399,3.8389,3.8297,0,0,0,0,0,3.7716,3.7776,3.785,3.7916,3.7944,3.8,3.8038,3.8063,3.8124,3.8148,3.8198,3.8256,3.8318,3.8358,3.8419,3.85,3.8518,3.8533,3.8537,3.854,3.8547,3.8594,3.8602,3.8517,3.8517,3.8517,0,0,3.7726,3.7782,3.7817,3.7913,3.796,3.8021,3.802,3.8084,3.813,3.8157,3.8236,3.8274,3.8341,3.8422,3.846,3.8455,3.8574,3.8545,3.8546,3.8552,3.8599,3.8606,3.8614,3.852,3.8519,3.8519,0,0,3.7777,3.7825,3.7887,3.7934,3.8005,3.8042,3.8056,3.8132,3.8159,3.8238,3.826,3.8314,3.842,3.8468,3.8506,3.8574,3.8588,3.8592,3.8613,3.8658,3.8665,3.8671,3.8697,3.8706,3.8599,3.8599,3.8599,0,3.7782,3.7875,3.7916,3.798,3.8021,3.8049,3.8111,3.8154,3.8241,3.827,3.8263,3.8397,3.8444,3.8537,3.8553,3.8582,3.8601,3.8585,3.8661,3.8667,3.8674,3.8699,3.8708,3.8599,3.8599,3.8599,3.8599,0,3.7877,3.7941,3.7982,3.8067,3.8113,3.8175,3.8225,3.8266,3.8288,3.8325,3.8406,3.8463,3.8537,3.856,3.8581,3.8656,3.8651,3.8652,3.864,3.8681,3.8706,3.8716,3.8599,3.8599,3.8599,3.8599,0,0,3.792,3.8026,3.8041,3.808,3.816,3.8211,3.8274,3.8346,3.8382,3.844,3.8495,3.8584,3.8586,3.8628,3.8655,3.8694,3.8746,3.869,3.8693,3.87,3.8834,3.8834,3.8844,3.8755,3.8757,3.8758,3.8829,0,3.7983,3.8099,3.8137,3.8233,3.8293,3.8319,3.8375,3.843,3.8466,3.8522,3.8562,3.8625,3.8621,3.8647,3.8687,3.8731,3.8774,3.8726,3.8807,3.8809,3.8792,3.8857,3.8858,3.8921,3.8838,3.884,3.8841,0,3.8072,3.8133,3.8235,3.8309,3.8335,3.8384,3.8454,3.8507,3.857,3.8593,3.8641,3.8665,3.8732,3.8714,3.8807,3.8774,3.8809,3.8835,3.8839,3.885,3.8829,3.8872,3.8942,3.8953,3.8856,3.8855,3.8854,0,3.8095,3.8203,3.8278,3.8311,3.8397,3.8432,3.8469,3.853,3.8572,3.8632,3.866,3.8726,3.8764,3.8814,3.8855,3.8838,3.8945,3.8931,3.8967,3.8966,3.8991,3.8989,3.907,3.9009,3.9009,3.9009,3.9009,0,3.8163,3.8225,3.829,3.8337,3.8407,3.845,3.8518,3.8556,3.8611,3.8665,3.8691,3.8741,3.879,3.8847,3.8879,3.8952,3.8968,3.8989,3.8997,3.8988,3.8986,3.9014,3.9011,3.9011,3.9011,3.901,3.901,0,3.8202,3.8248,3.8333,3.8408,3.8428,3.8477,3.8541,3.8587,3.8624,3.8692,3.8711,3.8769,3.8837,3.8882,3.8968,3.899,3.907,3.9076,3.9049,3.9054,3.9089,3.9086,3.9192,3.9209,3.9134,3.9135,3.9136,0,3.8243,3.8292,3.8372,3.8411,3.8449,3.8511,3.8553,3.8596,3.8639,3.8714,3.8751,3.8821,3.888,3.8987,3.9036,3.9103,3.9112,3.9144,3.9122,3.9112,3.9115,3.9112,3.9118,3.9149,3.9149,3.915,3.915,0,3.8312,3.8333,3.8393,3.8462,3.8512,3.8568,3.8624,3.8654,3.8707,3.8754,3.8824,3.8869,3.8958,3.9027,3.9098,3.9136,3.9153,3.9156,3.9169,3.9162,3.9145,3.9156,3.9061,3.9155,3.9154,3.9154,3.9154,3.9153,3.8355,3.84,3.8464,3.8531,3.8577,3.8629,3.8677,3.872,3.8779,3.8856,3.8877,3.895,3.9011,3.9108,3.9147,3.9205,3.9202,3.9219,3.9224,3.9228,3.923,3.9134,3.9218,3.9218,3.9218,3.9218,3.9218,0,3.8427,3.847,3.8531,3.8609,3.8661,3.8671,3.8734,3.8777,3.8842,3.8897,3.8954,3.9035,3.9102,3.9157,3.9226,3.9262,3.9271,3.9278,3.9278,3.9286,3.9228,3.9211,3.927,3.927,3.927,3.927,3.927,3.927,3.8471,3.8548,3.8576,3.8676,3.8717,3.8791,3.8826,3.8873,3.8918,3.9008,3.9064,3.9099,3.9154,3.9227,3.9289,3.9303,3.9329,3.9335,3.9351,3.9296,3.929,3.9285,3.927,3.934,3.934,3.9405,3.9406,3.9406]}]]